Location: Berville
(49.1893°N, 2.0748°E)
Time: 07:02:54
(UTC+00:00)

SKYMED 2 - Pass Details

Date: 08 February 2023
Orbit: 621 x 623 km, 97.9° (Epoch: 21 March)

Event Time Altitude Azimuth Distance (km) Brightness Sun altitude
Rises 17:47:38 0° 17° (NNE) 2,919 6.7 -8.3°
Reaches altitude 10° 17:49:52 10° 21° (NNE) 2,007 5.9 -8.7°
Maximum altitude 17:54:10 57° 101° (E) 737 3.6 -9.3°
Drops below altitude 10° 17:58:26 10° 180° (S) 1,989 6.3 -10.0°
Sets 18:00:39 0° 185° (S) 2,890 7.2 -10.4°
